Simultaneous Nadir Overpasses (SNOs) Predictions

Prediction of SNOs between FY3D and AQUA Satellite Orbit:

Table of predicted SNOs for the next 14.0 days since TLE Epoch: 1/29/2022
Index Date (FY3D) Time (FY3D) Lat,Lon (FY3D) SZA (FY3D ) Date (AQUA) Time (AQUA) Lat,Lon (AQUA) SZA (AQUA ) Distance(km) Time Diff (sec)
1 01/30/2022 23:50:57 -73.70, -3.31 88.76 01/30/2022 23:52:02 -73.71, -3.39 88.76 2.70 65
2 01/31/2022 00:41:17 72.38, 166.87 89.82 01/31/2022 00:41:04 72.37, 166.92 89.81 1.80 13
3 02/02/2022 15:18:08 73.75, -55.21 90.55 02/02/2022 15:19:04 73.75, -55.24 90.54 0.82 56
4 02/02/2022 16:08:20 -72.08, 115.69 91.25 02/02/2022 16:07:58 -72.08, 115.71 91.25 0.67 22
5 02/05/2022 06:45:10 -73.41,-106.18 90.61 02/05/2022 06:45:57 -73.42,-106.26 90.61 2.63 47
6 02/05/2022 07:35:28 71.98, 64.11 87.86 02/05/2022 07:34:57 71.98, 64.15 87.85 1.34 31
7 02/07/2022 22:12:28 73.81,-158.91 89.02 02/07/2022 22:13:05 73.81,-158.84 89.00 2.25 37
8 02/07/2022 23:02:27 -71.49, 13.26 93.48 02/07/2022 23:01:47 -71.49, 13.24 93.48 0.90 40
9 02/10/2022 13:39:26 -73.34, 150.45 92.36 02/10/2022 13:39:54 -73.34, 150.43 92.36 0.68 28



Historial Predications of SNOs between FY3D and AQUA
